Location: Unspecified
(0.0000°N, 0.0000°E)
Time: 13:33:48
(UTC+00:00)

OTV 5 (USA 277) - Pass Details

Date: 22 August 2019
Orbit: 305 x 329 km, 54.5° (Epoch: 20 August)

Event Time Altitude Azimuth Distance (km) Brightness Sun altitude
Rises 18:48:02 0° 233° (SW) 2,073 ? -11.0°
Reaches altitude 10° 18:50:18 10° 251° (WSW) 1,234 ? -11.6°
Maximum altitude 18:52:26 20° 302° (WNW) 813 ? -12.1°
Drops below altitude 10° 18:54:32 10° 354° (N) 1,220 ? -12.6°
Sets 18:56:47 0° 12° (NNE) 2,042 ? -13.2°
